{"data":{"norad_id":60348,"epoch":"2026-09-21T22:31:27.480864Z","epoch_age_seconds":61255,"freshness":"FRESH","line1":"1 60348U 24136V   26264.93851251 -.00000438  00000+0 -23400-5 0  9991","line2":"2 60348  53.1608 242.5121 0001411  79.8207 280.2954 15.31697483119731","mean_motion":15.31697483,"eccentricity":0.0001411,"inclination_deg":53.1608,"raan_deg":242.5121,"arg_perigee_deg":79.8207,"mean_anomaly_deg":280.2954,"bstar":-2.34e-6,"rev_number":11973,"period_min":94.013342450599,"perigee_km":469.78112067924,"apogee_km":471.71387588466,"semimajor_km":6848.8844982819,"source":"CELESTRAK","updated_at":"2026-09-22T09:00:49.222679Z"}}